TimeCST,TemperatureF,Dew PointF,Humidity,Sea Level PressureIn,VisibilityMPH,Wind Direction,Wind SpeedMPH,Gust SpeedMPH,PrecipitationIn,Events,Conditions,WindDirDegrees,DateUTC
12:15 AM,37.4,36.5,97,30.16,4.0,Calm,Calm,-,N/A,,Overcast,0,2012-11-08 06:15:00
12:35 AM,37.8,36.5,95,30.16,4.0,Calm,Calm,-,N/A,,Overcast,0,2012-11-08 06:35:00
12:55 AM,38.5,37.0,95,30.16,4.0,South,3.5,-,N/A,,Overcast,170,2012-11-08 06:55:00
1:15 AM,38.8,37.2,94,30.16,5.0,Calm,Calm,-,N/A,,Overcast,0,2012-11-08 07:15:00
1:35 AM,38.5,36.7,93,30.16,4.0,South,3.5,-,N/A,,Overcast,190,2012-11-08 07:35:00
1:55 AM,39.2,37.4,93,30.16,4.0,SW,3.5,-,N/A,,Overcast,220,2012-11-08 07:55:00
2:15 AM,38.5,36.5,93,30.17,5.0,SSW,3.5,-,N/A,,Overcast,210,2012-11-08 08:15:00
2:35 AM,38.1,36.7,95,30.17,4.0,South,3.5,-,N/A,,Overcast,190,2012-11-08 08:35:00
2:55 AM,38.8,37.0,93,30.16,4.0,South,4.6,-,N/A,,Overcast,190,2012-11-08 08:55:00
3:15 AM,39.2,37.4,93,30.17,3.0,SSW,3.5,-,N/A,,Overcast,200,2012-11-08 09:15:00
3:35 AM,39.2,37.4,93,30.17,3.0,Calm,Calm,-,N/A,,Overcast,0,2012-11-08 09:35:00
3:55 AM,39.2,37.6,94,30.17,3.0,South,3.5,-,N/A,,Overcast,190,2012-11-08 09:55:00
4:15 AM,39.2,37.8,95,30.18,3.0,Calm,Calm,-,N/A,,Overcast,0,2012-11-08 10:15:00
4:35 AM,39.6,38.3,95,30.18,3.0,Calm,Calm,-,N/A,,Overcast,0,2012-11-08 10:35:00
4:55 AM,39.2,39.2,100,30.18,3.0,WSW,3.5,-,N/A,,Overcast,240,2012-11-08 10:55:00
5:15 AM,39.7,38.5,95,30.18,2.5,Calm,Calm,-,N/A,,Overcast,0,2012-11-08 11:15:00
5:35 AM,40.1,38.8,95,30.18,2.5,Calm,Calm,-,N/A,,Overcast,0,2012-11-08 11:35:00
5:55 AM,40.1,39.2,97,30.19,2.0,Calm,Calm,-,N/A,,Overcast,0,2012-11-08 11:55:00
6:15 AM,40.1,39.2,97,30.19,2.0,Calm,Calm,-,N/A,,Overcast,0,2012-11-08 12:15:00
6:35 AM,40.5,39.6,97,30.19,2.0,Calm,Calm,-,N/A,,Overcast,0,2012-11-08 12:35:00
6:55 AM,40.3,39.2,96,30.20,1.8,Calm,Calm,-,N/A,,Overcast,0,2012-11-08 12:55:00
7:15 AM,40.3,39.4,97,30.21,1.2,Calm,Calm,-,N/A,,Overcast,0,2012-11-08 13:15:00
7:35 AM,40.3,39.4,97,30.21,1.2,Calm,Calm,-,N/A,,Overcast,0,2012-11-08 13:35:00
7:55 AM,41.2,40.1,96,30.21,1.5,Calm,Calm,-,N/A,,Overcast,0,2012-11-08 13:55:00
8:15 AM,41.5,40.3,95,30.21,1.8,South,3.5,-,N/A,,Overcast,170,2012-11-08 14:15:00
8:35 AM,41.7,40.3,95,30.21,1.8,SSW,3.5,-,N/A,,Overcast,210,2012-11-08 14:35:00
8:55 AM,42.1,40.5,94,30.21,1.8,SSW,3.5,-,N/A,,Overcast,210,2012-11-08 14:55:00
9:15 AM,42.1,40.1,93,30.22,2.5,SW,5.8,-,N/A,,Overcast,220,2012-11-08 15:15:00
9:35 AM,42.4,40.1,91,30.22,2.5,SW,5.8,-,N/A,,Overcast,220,2012-11-08 15:35:00
9:55 AM,42.8,40.3,91,30.22,2.5,SW,5.8,-,N/A,,Overcast,230,2012-11-08 15:55:00
10:15 AM,42.8,39.9,90,30.22,2.5,SW,6.9,-,N/A,,Overcast,220,2012-11-08 16:15:00
10:35 AM,43.5,39.9,87,30.22,3.0,SW,8.1,-,N/A,,Overcast,220,2012-11-08 16:35:00
10:55 AM,43.7,38.8,83,30.21,5.0,NW,5.8,-,N/A,,Haze,310,2012-11-08 16:55:00
11:15 AM,43.7,37.0,77,30.21,7.0,SW,8.1,-,N/A,,Overcast,230,2012-11-08 17:15:00
11:35 AM,43.7,36.7,76,30.21,7.0,SW,8.1,-,N/A,,Overcast,220,2012-11-08 17:35:00
11:55 AM,44.2,35.6,72,30.20,10.0,SW,8.1,-,N/A,,Overcast,220,2012-11-08 17:55:00
12:15 PM,43.7,34.9,71,30.19,10.0,SW,10.4,-,N/A,,Overcast,230,2012-11-08 18:15:00
12:35 PM,43.9,34.9,71,30.18,10.0,SSW,10.4,-,N/A,,Overcast,210,2012-11-08 18:35:00
12:55 PM,44.6,35.6,71,30.17,10.0,SW,9.2,-,N/A,,Overcast,220,2012-11-08 18:55:00
1:15 PM,43.7,34.0,69,30.17,10.0,SSW,8.1,-,N/A,,Overcast,200,2012-11-08 19:15:00
1:35 PM,44.1,34.2,68,30.16,10.0,SSW,10.4,-,N/A,,Overcast,200,2012-11-08 19:35:00
1:55 PM,44.2,34.5,69,30.16,10.0,SW,8.1,-,N/A,,Overcast,220,2012-11-08 19:55:00
2:15 PM,44.4,34.2,67,30.15,10.0,SSW,11.5,-,N/A,,Overcast,210,2012-11-08 20:15:00
2:35 PM,44.6,34.2,67,30.15,10.0,SSW,10.4,-,N/A,,Overcast,210,2012-11-08 20:35:00
2:55 PM,44.6,34.3,67,30.15,10.0,SSW,10.4,-,N/A,,Overcast,210,2012-11-08 20:55:00
3:15 PM,44.6,35.2,70,30.15,10.0,SSW,8.1,-,N/A,,Overcast,200,2012-11-08 21:15:00
3:35 PM,44.2,35.1,70,30.14,7.0,SW,10.4,-,N/A,,Overcast,220,2012-11-08 21:35:00
3:55 PM,44.1,35.6,72,30.14,7.0,SSW,11.5,-,N/A,,Overcast,210,2012-11-08 21:55:00
4:15 PM,43.7,34.7,71,30.14,10.0,SSW,8.1,-,N/A,,Overcast,200,2012-11-08 22:15:00
4:35 PM,43.0,34.7,73,30.13,10.0,South,6.9,-,N/A,,Overcast,190,2012-11-08 22:35:00
4:55 PM,40.5,33.8,77,30.13,10.0,South,6.9,-,N/A,,Overcast,170,2012-11-08 22:55:00
5:15 PM,40.3,33.3,76,30.13,10.0,SSE,4.6,-,N/A,,Scattered Clouds,150,2012-11-08 23:15:00
5:35 PM,39.7,33.4,78,30.13,7.0,SSE,4.6,-,N/A,,Clear,150,2012-11-08 23:35:00
5:55 PM,37.9,32.4,80,30.13,7.0,SSE,3.5,-,N/A,,Clear,150,2012-11-08 23:55:00
6:15 PM,38.5,32.9,80,30.13,7.0,SSE,4.6,-,N/A,,Clear,150,2012-11-09 00:15:00
6:35 PM,37.6,32.4,81,30.14,7.0,South,3.5,-,N/A,,Clear,170,2012-11-09 00:35:00
6:55 PM,36.5,32.2,84,30.13,7.0,SSE,4.6,-,N/A,,Clear,160,2012-11-09 00:55:00
7:15 PM,35.4,31.8,87,30.13,7.0,South,4.6,-,N/A,,Clear,170,2012-11-09 01:15:00
7:35 PM,34.3,31.6,90,30.13,7.0,South,5.8,-,N/A,,Clear,170,2012-11-09 01:35:00
7:55 PM,34.9,32.0,89,30.13,7.0,South,8.1,-,N/A,,Clear,180,2012-11-09 01:55:00
8:15 PM,34.7,32.0,90,30.13,5.0,South,6.9,-,N/A,,Clear,180,2012-11-09 02:15:00
8:35 PM,34.3,32.0,91,30.12,5.0,South,6.9,-,N/A,,Clear,170,2012-11-09 02:35:00
8:55 PM,33.8,32.0,93,30.12,5.0,South,6.9,-,N/A,,Clear,170,2012-11-09 02:55:00
9:15 PM,34.7,32.0,90,30.12,5.0,South,5.8,-,N/A,,Clear,170,2012-11-09 03:15:00
9:35 PM,34.7,32.0,90,30.12,5.0,South,5.8,-,N/A,,Clear,170,2012-11-09 03:35:00
10:15 PM,33.8,31.8,92,30.11,5.0,South,5.8,-,N/A,,Clear,170,2012-11-09 04:15:00
10:35 PM,34.0,32.0,92,30.11,5.0,South,5.8,-,N/A,,Clear,180,2012-11-09 04:35:00
10:55 PM,33.8,32.0,93,30.11,5.0,South,5.8,-,N/A,,Clear,180,2012-11-09 04:55:00
11:15 PM,34.2,32.0,92,30.12,5.0,South,4.6,-,N/A,,Clear,180,2012-11-09 05:15:00
11:35 PM,34.2,32.0,92,30.12,5.0,South,4.6,-,N/A,,Clear,180,2012-11-09 05:35:00
11:55 PM,33.8,32.0,93,30.12,5.0,South,4.6,-,N/A,,Clear,170,2012-11-09 05:55:00